| time (UTC) | temp F | wind direction | speed MPH | gust MPH | rain 1hr in | rain 24hr in | rain mn in | humidity % | barometer mb |
| 20260510041003 | 65 | 0 | 1.0 | 0.0 | 0.00 | 0.00 | 0.00 | 54 | 1017.4 |
| 20260510040503 | 66 | 252 | 2.0 | 3.0 | 0.00 | 0.00 | 0.00 | 54 | 1017.6 |
| 20260510040003 | 66 | 252 | 3.0 | 3.0 | 0.00 | 0.00 | 0.00 | 54 | 1017.5 |
| 20260510035503 | 66 | 259 | 3.0 | 4.0 | 0.00 | 0.00 | 0.00 | 53 | 1017.5 |
| 20260510035004 | 66 | 267 | 3.0 | 4.0 | 0.00 | 0.00 | 0.00 | 52 | 1017.4 |
| 20260510034503 | 67 | 263 | 3.0 | 4.0 | 0.00 | 0.00 | 0.00 | 52 | 1017.4 |
| 20260510034003 | 67 | 260 | 3.0 | 7.0 | 0.00 | 0.00 | 0.00 | 51 | 1017.5 |
| 20260510033503 | 67 | 252 | 4.0 | 5.0 | 0.00 | 0.00 | 0.00 | 50 | 1017.4 |
| 20260510033005 | 67 | 253 | 4.0 | 5.0 | 0.00 | 0.00 | 0.00 | 50 | 1017.4 |
| 20260510032503 | 68 | 249 | 5.0 | 5.0 | 0.00 | 0.00 | 0.00 | 49 | 1017.3 |
| 20260510032003 | 68 | 260 | 7.0 | 7.0 | 0.00 | 0.00 | 0.00 | 49 | 1017.2 |
| 20260510031503 | 68 | 269 | 8.0 | 10.0 | 0.00 | 0.00 | 0.00 | 48 | 1017.1 |
| 20260510031003 | 68 | 261 | 6.0 | 10.0 | 0.00 | 0.00 | 0.00 | 47 | 1016.9 |
| 20260510030503 | 69 | 266 | 6.0 | 7.0 | 0.00 | 0.00 | 0.00 | 47 | 1017.0 |
| 20260510030004 | 69 | 257 | 6.0 | 9.0 | 0.00 | 0.00 | 0.00 | 46 | 1016.8 |
| 20260510025504 | 69 | 268 | 6.0 | 8.0 | 0.00 | 0.00 | 0.00 | 46 | 1016.8 |
| 20260510024005 | 70 | 250 | 6.0 | 9.0 | 0.00 | 0.00 | 0.00 | 46 | 1016.8 |
| 20260510023503 | 70 | 249 | 3.0 | 8.0 | 0.00 | 0.00 | 0.00 | 47 | 1016.8 |
| 20260510023004 | 70 | 259 | 3.0 | 10.0 | 0.00 | 0.00 | 0.00 | 49 | 1016.7 |
| 20260510022503 | 70 | 262 | 5.0 | 6.0 | 0.00 | 0.00 | 0.00 | 50 | 1016.7 |
| 20260510022003 | 70 | 271 | 4.0 | 9.0 | 0.00 | 0.00 | 0.00 | 49 | 1016.7 |
| 20260510021503 | 70 | 315 | 4.0 | 8.0 | 0.00 | 0.00 | 0.00 | 48 | 1016.7 |
| 20260510021003 | 71 | 313 | 5.0 | 6.0 | 0.00 | 0.00 | 0.00 | 48 | 1016.5 |
| 20260510020503 | 71 | 290 | 6.0 | 10.0 | 0.00 | 0.00 | 0.00 | 48 | 1016.5 |
| 20260510020004 | 71 | 301 | 7.0 | 10.0 | 0.00 | 0.00 | 0.00 | 48 | 1016.5 |
| 20260510015503 | 71 | 305 | 8.0 | 10.0 | 0.00 | 0.00 | 0.00 | 48 | 1016.4 |
| 20260510015003 | 72 | 305 | 8.0 | 12.0 | 0.00 | 0.00 | 0.00 | 48 | 1016.4 |
| 20260510014504 | 72 | 311 | 7.0 | 14.0 | 0.00 | 0.00 | 0.00 | 48 | 1016.4 |
| 20260510014003 | 72 | 306 | 8.0 | 10.0 | 0.00 | 0.00 | 0.00 | 48 | 1016.4 |
| 20260510013503 | 72 | 310 | 8.0 | 11.0 | 0.00 | 0.00 | 0.00 | 48 | 1016.2 |
| 20260510013003 | 72 | 301 | 9.0 | 13.0 | 0.00 | 0.00 | 0.00 | 48 | 1016.2 |
| 20260510012504 | 72 | 299 | 9.0 | 12.0 | 0.00 | 0.00 | 0.00 | 48 | 1016.2 |
| 20260510012003 | 72 | 318 | 9.0 | 13.0 | 0.00 | 0.00 | 0.00 | 47 | 1016.2 |
| 20260510011504 | 73 | 307 | 9.0 | 14.0 | 0.00 | 0.00 | 0.00 | 47 | 1016.2 |
| 20260510011003 | 73 | 312 | 8.0 | 13.0 | 0.00 | 0.00 | 0.00 | 46 | 1016.2 |
| 20260510010503 | 73 | 312 | 9.0 | 14.0 | 0.00 | 0.00 | 0.00 | 46 | 1016.2 |
| 20260510010004 | 73 | 313 | 9.0 | 12.0 | 0.00 | 0.00 | 0.00 | 45 | 1016.2 |
| 20260510005503 | 73 | 314 | 9.0 | 16.0 | 0.00 | 0.00 | 0.00 | 45 | 1016.1 |
| 20260510004004 | 74 | 298 | 9.0 | 12.0 | 0.00 | 0.00 | 0.00 | 45 | 1016.1 |
| 20260510003503 | 74 | 316 | 8.0 | 13.0 | 0.00 | 0.00 | 0.00 | 44 | 1016.0 |
| 20260510003004 | 74 | 315 | 10.0 | 13.0 | 0.00 | 0.00 | 0.00 | 44 | 1016.1 |
| 20260510002503 | 74 | 313 | 12.0 | 14.0 | 0.00 | 0.00 | 0.00 | 43 | 1016.1 |
| 20260510002003 | 74 | 311 | 11.0 | 15.0 | 0.00 | 0.00 | 0.00 | 42 | 1016.1 |
| 20260510001504 | 74 | 319 | 11.0 | 15.0 | 0.00 | 0.00 | 0.00 | 42 | 1016.0 |
| 20260510001003 | 75 | 310 | 11.0 | 15.0 | 0.00 | 0.00 | 0.00 | 42 | 1016.1 |
| 20260510000504 | 74 | 311 | 11.0 | 17.0 | 0.00 | 0.00 | 0.00 | 42 | 1016.1 |
| 20260510000004 | 74 | 315 | 11.0 | 16.0 | 0.00 | 0.00 | 0.00 | 42 | 1016.1 |
| 20260509235503 | 74 | 315 | 12.0 | 17.0 | 0.00 | 0.00 | 0.00 | 42 | 1016.1 |
| 20260509235003 | 75 | 320 | 11.0 | 18.0 | 0.00 | 0.00 | 0.00 | 42 | 1016.1 |
| 20260509234503 | 74 | 308 | 11.0 | 17.0 | 0.00 | 0.00 | 0.00 | 42 | 1016.0 |
| 20260509233503 | 74 | 311 | 11.0 | 18.0 | 0.00 | 0.00 | 0.00 | 42 | 1016.1 |
| 20260509233004 | 74 | 311 | 11.0 | 15.0 | 0.00 | 0.00 | 0.00 | 43 | 1016.0 |
| 20260509232004 | 75 | 309 | 12.0 | 14.0 | 0.00 | 0.00 | 0.00 | 42 | 1016.0 |
| 20260509230504 | 75 | 311 | 11.0 | 18.0 | 0.00 | 0.00 | 0.00 | 42 | 1016.1 |
| 20260509230004 | 75 | 319 | 10.0 | 16.0 | 0.00 | 0.00 | 0.00 | 42 | 1016.1 |
| 20260509225503 | 75 | 319 | 10.0 | 17.0 | 0.00 | 0.00 | 0.00 | 42 | 1016.2 |
| 20260509225006 | 75 | 314 | 11.0 | 15.0 | 0.00 | 0.00 | 0.00 | 41 | 1016.1 |
| 20260509224503 | 75 | 318 | 11.0 | 18.0 | 0.00 | 0.00 | 0.00 | 43 | 1016.2 |
| 20260509224004 | 75 | 315 | 12.0 | 15.0 | 0.00 | 0.00 | 0.00 | 42 | 1016.2 |
| 20260509223004 | 75 | 314 | 12.0 | 19.0 | 0.00 | 0.00 | 0.00 | 42 | 1016.3 |
| 20260509222003 | 75 | 322 | 11.0 | 20.0 | 0.00 | 0.00 | 0.00 | 42 | 1016.3 |
| 20260509221504 | 75 | 315 | 11.0 | 16.0 | 0.00 | 0.00 | 0.00 | 42 | 1016.4 |
| 20260509220504 | 75 | 321 | 11.0 | 14.0 | 0.00 | 0.00 | 0.00 | 42 | 1016.6 |
| 20260509220004 | 75 | 317 | 11.0 | 15.0 | 0.00 | 0.00 | 0.00 | 42 | 1016.5 |
| 20260509215504 | 75 | 319 | 11.0 | 14.0 | 0.00 | 0.00 | 0.00 | 42 | 1016.7 |
| 20260509215003 | 75 | 319 | 12.0 | 20.0 | 0.00 | 0.00 | 0.00 | 42 | 1016.7 |
| 20260509213503 | 75 | 320 | 11.0 | 19.0 | 0.00 | 0.00 | 0.00 | 43 | 1016.8 |
| 20260509213004 | 75 | 320 | 11.0 | 18.0 | 0.00 | 0.00 | 0.00 | 44 | 1016.8 |
| 20260509212502 | 75 | 320 | 11.0 | 17.0 | 0.00 | 0.00 | 0.00 | 43 | 1016.9 |
| 20260509212002 | 75 | 321 | 11.0 | 19.0 | 0.00 | 0.00 | 0.00 | 43 | 1017.0 |
| 20260509211002 | 75 | 322 | 11.0 | 18.0 | 0.00 | 0.00 | 0.00 | 44 | 1016.9 |
| 20260509210502 | 75 | 321 | 11.0 | 17.0 | 0.00 | 0.00 | 0.00 | 44 | 1017.0 |
| 20260509210003 | 75 | 319 | 10.0 | 15.0 | 0.00 | 0.00 | 0.00 | 45 | 1017.0 |
| 20260509205503 | 74 | 318 | 10.0 | 13.0 | 0.00 | 0.00 | 0.00 | 44 | 1017.1 |
| 20260509205003 | 74 | 317 | 10.0 | 16.0 | 0.00 | 0.00 | 0.00 | 44 | 1017.0 |
| 20260509204502 | 75 | 323 | 10.0 | 18.0 | 0.00 | 0.00 | 0.00 | 44 | 1017.1 |
| 20260509204002 | 75 | 321 | 9.0 | 20.0 | 0.00 | 0.00 | 0.00 | 44 | 1017.1 |
| 20260509203503 | 75 | 322 | 8.0 | 16.0 | 0.00 | 0.00 | 0.00 | 43 | 1017.1 |
| 20260509203002 | 75 | 319 | 8.0 | 13.0 | 0.00 | 0.00 | 0.00 | 44 | 1017.3 |
| 20260509202502 | 74 | 323 | 9.0 | 15.0 | 0.00 | 0.00 | 0.00 | 45 | 1017.3 |
| 20260509202002 | 74 | 320 | 9.0 | 15.0 | 0.00 | 0.00 | 0.00 | 44 | 1017.2 |
| 20260509201502 | 74 | 323 | 9.0 | 14.0 | 0.00 | 0.00 | 0.00 | 45 | 1017.2 |
| 20260509200503 | 73 | 319 | 10.0 | 13.0 | 0.00 | 0.00 | 0.00 | 45 | 1017.3 |
| 20260509200002 | 73 | 317 | 10.0 | 17.0 | 0.00 | 0.00 | 0.00 | 45 | 1017.2 |
| 20260509195502 | 74 | 321 | 10.0 | 16.0 | 0.00 | 0.00 | 0.00 | 44 | 1017.4 |
| 20260509195002 | 73 | 319 | 10.0 | 17.0 | 0.00 | 0.00 | 0.00 | 46 | 1017.4 |
| 20260509194003 | 73 | 320 | 11.0 | 15.0 | 0.00 | 0.00 | 0.00 | 46 | 1017.4 |
| 20260509193503 | 72 | 322 | 11.0 | 16.0 | 0.00 | 0.00 | 0.00 | 46 | 1017.5 |
| 20260509193003 | 72 | 318 | 11.0 | 16.0 | 0.00 | 0.00 | 0.00 | 46 | 1017.6 |
| 20260509192002 | 72 | 316 | 10.0 | 15.0 | 0.00 | 0.00 | 0.00 | 46 | 1017.6 |
| 20260509191502 | 72 | 318 | 10.0 | 16.0 | 0.00 | 0.00 | 0.00 | 46 | 1017.6 |
| 20260509191002 | 72 | 320 | 10.0 | 14.0 | 0.00 | 0.00 | 0.00 | 46 | 1017.7 |
| 20260509190502 | 72 | 324 | 9.0 | 16.0 | 0.00 | 0.00 | 0.00 | 45 | 1017.7 |
| 20260509190002 | 73 | 325 | 8.0 | 15.0 | 0.00 | 0.00 | 0.00 | 45 | 1017.7 |
| 20260509185502 | 72 | 323 | 7.0 | 12.0 | 0.00 | 0.00 | 0.00 | 46 | 1017.7 |
| 20260509185004 | 72 | 329 | 7.0 | 14.0 | 0.00 | 0.00 | 0.00 | 46 | 1017.8 |
| 20260509184502 | 72 | 325 | 7.0 | 11.0 | 0.00 | 0.00 | 0.00 | 45 | 1017.9 |
| 20260509184002 | 72 | 320 | 6.0 | 13.0 | 0.00 | 0.00 | 0.00 | 45 | 1018.0 |
| 20260509183502 | 72 | 325 | 6.0 | 10.0 | 0.00 | 0.00 | 0.00 | 45 | 1018.0 |
| 20260509182502 | 71 | 324 | 6.0 | 10.0 | 0.00 | 0.00 | 0.00 | 46 | 1018.2 |
| 20260509182002 | 71 | 323 | 7.0 | 12.0 | 0.00 | 0.00 | 0.00 | 44 | 1018.2 |
| 20260509181503 | 70 | 318 | 8.0 | 13.0 | 0.00 | 0.00 | 0.00 | 45 | 1018.3 |
| 20260509181002 | 70 | 322 | 7.0 | 12.0 | 0.00 | 0.00 | 0.00 | 45 | 1018.0 |
| 20260509180503 | 70 | 319 | 7.0 | 12.0 | 0.00 | 0.00 | 0.00 | 45 | 1018.1 |
| 20260509180003 | 70 | 323 | 7.0 | 11.0 | 0.00 | 0.00 | 0.00 | 45 | 1018.1 |
| 20260509175503 | 69 | 322 | 8.0 | 12.0 | 0.00 | 0.00 | 0.00 | 44 | 1018.1 |
| 20260509175002 | 69 | 322 | 8.0 | 14.0 | 0.00 | 0.00 | 0.00 | 46 | 1018.1 |
| 20260509174503 | 69 | 323 | 7.0 | 13.0 | 0.00 | 0.00 | 0.00 | 45 | 1018.1 |
| 20260509173502 | 68 | 316 | 9.0 | 13.0 | 0.00 | 0.00 | 0.00 | 47 | 1018.1 |
| 20260509173002 | 68 | 320 | 8.0 | 14.0 | 0.00 | 0.00 | 0.00 | 47 | 1018.1 |
| 20260509172503 | 68 | 317 | 7.0 | 12.0 | 0.00 | 0.00 | 0.00 | 47 | 1018.1 |
| 20260509172002 | 68 | 321 | 7.0 | 14.0 | 0.00 | 0.00 | 0.00 | 47 | 1018.1 |
| 20260509171002 | 68 | 319 | 7.0 | 13.0 | 0.00 | 0.00 | 0.00 | 48 | 1018.0 |
| 20260509170502 | 67 | 316 | 6.0 | 12.0 | 0.00 | 0.00 | 0.00 | 47 | 1018.0 |
| 20260509170003 | 67 | 319 | 7.0 | 10.0 | 0.00 | 0.00 | 0.00 | 47 | 1018.0 |
| 20260509165502 | 67 | 320 | 8.0 | 12.0 | 0.00 | 0.00 | 0.00 | 47 | 1018.1 |
| 20260509165002 | 67 | 314 | 8.0 | 11.0 | 0.00 | 0.00 | 0.00 | 47 | 1018.2 |
| 20260509164503 | 67 | 319 | 8.0 | 15.0 | 0.00 | 0.00 | 0.00 | 47 | 1018.2 |
| 20260509164002 | 67 | 320 | 6.0 | 12.0 | 0.00 | 0.00 | 0.00 | 47 | 1018.1 |
| 20260509163502 | 66 | 323 | 5.0 | 11.0 | 0.00 | 0.00 | 0.00 | 48 | 1018.2 |
| 20260509163003 | 66 | 319 | 5.0 | 10.0 | 0.00 | 0.00 | 0.00 | 47 | 1018.2 |
| 20260509162502 | 66 | 321 | 5.0 | 8.0 | 0.00 | 0.00 | 0.00 | 46 | 1018.3 |
| 20260509162002 | 66 | 327 | 4.0 | 9.0 | 0.00 | 0.00 | 0.00 | 47 | 1018.2 |
| 20260509161502 | 66 | 329 | 4.0 | 9.0 | 0.00 | 0.00 | 0.00 | 47 | 1018.2 |
| 20260509161004 | 66 | 319 | 5.0 | 8.0 | 0.00 | 0.00 | 0.00 | 48 | 1018.2 |
| 20260509160502 | 65 | 315 | 4.0 | 9.0 | 0.00 | 0.00 | 0.00 | 48 | 1018.2 |
| 20260509160003 | 65 | 311 | 5.0 | 9.0 | 0.00 | 0.00 | 0.00 | 48 | 1018.2 |
| 20260509155502 | 65 | 319 | 5.0 | 6.0 | 0.00 | 0.00 | 0.00 | 49 | 1018.2 |
| 20260509155003 | 64 | 321 | 6.0 | 10.0 | 0.00 | 0.00 | 0.00 | 50 | 1018.2 |
| 20260509154503 | 64 | 315 | 6.0 | 8.0 | 0.00 | 0.00 | 0.00 | 51 | 1018.2 |
| 20260509154002 | 64 | 322 | 7.0 | 12.0 | 0.00 | 0.00 | 0.00 | 50 | 1018.2 |
| 20260509153503 | 64 | 320 | 7.0 | 11.0 | 0.00 | 0.00 | 0.00 | 51 | 1018.3 |
| 20260509152502 | 63 | 321 | 5.0 | 9.0 | 0.00 | 0.00 | 0.00 | 51 | 1018.3 |
| 20260509151504 | 62 | 322 | 3.0 | 8.0 | 0.00 | 0.00 | 0.00 | 55 | 1018.2 |
| 20260509151003 | 62 | 322 | 2.0 | 5.0 | 0.00 | 0.00 | 0.00 | 57 | 1018.2 |
| 20260509150502 | 61 | 316 | 1.0 | 4.0 | 0.00 | 0.00 | 0.00 | 58 | 1018.2 |
| 20260509150003 | 60 | 306 | 0.0 | 3.0 | 0.00 | 0.00 | 0.00 | 59 | 1018.2 |
| 20260509145003 | 60 | 299 | 0.0 | 1.0 | 0.00 | 0.00 | 0.00 | 58 | 1018.2 |
| 20260509144503 | 59 | 0 | 0.0 | 0.0 | 0.00 | 0.00 | 0.00 | 58 | 1018.2 |
| 20260509144002 | 59 | 0 | 0.0 | 0.0 | 0.00 | 0.00 | 0.00 | 58 | 1018.3 |
| 20260509143503 | 60 | 0 | 0.0 | 0.0 | 0.00 | 0.00 | 0.00 | 57 | 1018.3 |
| 20260509143003 | 60 | 0 | 0.0 | 0.0 | 0.00 | 0.00 | 0.00 | 56 | 1018.4 |
| 20260509142502 | 60 | 0 | 0.0 | 0.0 | 0.00 | 0.00 | 0.00 | 55 | 1018.4 |
| 20260509142004 | 60 | 0 | 0.0 | 0.0 | 0.00 | 0.00 | 0.00 | 56 | 1018.4 |
| 20260509141503 | 59 | 0 | 0.0 | 0.0 | 0.00 | 0.00 | 0.00 | 57 | 1018.3 |
| 20260509141002 | 58 | 0 | 0.0 | 0.0 | 0.00 | 0.00 | 0.00 | 58 | 1018.3 |
| 20260509140502 | 57 | 0 | 0.0 | 0.0 | 0.00 | 0.00 | 0.00 | 59 | 1018.2 |
| 20260509140002 | 56 | 0 | 0.0 | 0.0 | 0.00 | 0.00 | 0.00 | 60 | 1018.3 |
| 20260509135502 | 56 | 0 | 0.0 | 0.0 | 0.00 | 0.00 | 0.00 | 61 | 1018.2 |
| 20260509135003 | 56 | 0 | 0.0 | 0.0 | 0.00 | 0.00 | 0.00 | 61 | 1018.2 |
| 20260509134502 | 55 | 0 | 0.0 | 0.0 | 0.00 | 0.00 | 0.00 | 62 | 1018.3 |
| 20260509134002 | 54 | 0 | 0.0 | 0.0 | 0.00 | 0.00 | 0.00 | 64 | 1018.3 |
| 20260509133503 | 53 | 0 | 0.0 | 0.0 | 0.00 | 0.00 | 0.00 | 65 | 1018.3 |
| 20260509132502 | 52 | 0 | 0.0 | 0.0 | 0.00 | 0.00 | 0.00 | 65 | 1018.4 |
| 20260509132003 | 52 | 0 | 0.0 | 0.0 | 0.00 | 0.00 | 0.00 | 65 | 1018.3 |
| 20260509131503 | 52 | 0 | 0.0 | 0.0 | 0.00 | 0.00 | 0.00 | 64 | 1018.3 |
| 20260509131003 | 53 | 0 | 0.0 | 0.0 | 0.00 | 0.00 | 0.00 | 64 | 1018.3 |
| 20260509130503 | 53 | 0 | 0.0 | 0.0 | 0.00 | 0.00 | 0.00 | 65 | 1018.3 |
| 20260509125503 | 52 | 0 | 0.0 | 0.0 | 0.00 | 0.00 | 0.00 | 64 | 1018.3 |
| 20260509125003 | 53 | 0 | 0.0 | 0.0 | 0.00 | 0.00 | 0.00 | 63 | 1018.2 |
| 20260509124502 | 53 | 0 | 0.0 | 0.0 | 0.00 | 0.00 | 0.00 | 62 | 1018.1 |
| 20260509124003 | 53 | 0 | 0.0 | 0.0 | 0.00 | 0.00 | 0.00 | 62 | 1018.1 |
| 20260509123503 | 53 | 0 | 0.0 | 0.0 | 0.00 | 0.00 | 0.00 | 61 | 1018.0 |
| 20260509123002 | 54 | 299 | 1.0 | 2.0 | 0.00 | 0.00 | 0.00 | 61 | 1018.1 |
| 20260509122503 | 53 | 298 | 0.0 | 2.0 | 0.00 | 0.00 | 0.00 | 61 | 1018.0 |
| 20260509122003 | 54 | 292 | 0.0 | 2.0 | 0.00 | 0.00 | 0.00 | 59 | 1018.0 |
| 20260509121503 | 54 | 0 | 0.0 | 0.0 | 0.00 | 0.00 | 0.00 | 59 | 1018.0 |
| 20260509121003 | 54 | 0 | 1.0 | 0.0 | 0.00 | 0.00 | 0.00 | 60 | 1017.9 |
| 20260509120003 | 54 | 289 | 0.0 | 2.0 | 0.00 | 0.00 | 0.00 | 58 | 1017.8 |
| 20260509115504 | 54 | 289 | 0.0 | 1.0 | 0.00 | 0.00 | 0.00 | 58 | 1017.9 |
| 20260509115003 | 55 | 0 | 0.0 | 0.0 | 0.00 | 0.00 | 0.00 | 57 | 1017.8 |
| 20260509114503 | 55 | 0 | 0.0 | 0.0 | 0.00 | 0.00 | 0.00 | 57 | 1017.9 |
| 20260509114003 | 56 | 289 | 0.0 | 2.0 | 0.00 | 0.00 | 0.00 | 56 | 1017.9 |
| 20260509113503 | 56 | 292 | 0.0 | 1.0 | 0.00 | 0.00 | 0.00 | 57 | 1017.9 |
| 20260509113003 | 55 | 291 | 0.0 | 2.0 | 0.00 | 0.00 | 0.00 | 57 | 1017.9 |
| 20260509112503 | 55 | 289 | 0.0 | 1.0 | 0.00 | 0.00 | 0.00 | 56 | 1017.8 |
| 20260509112003 | 56 | 290 | 1.0 | 2.0 | 0.00 | 0.00 | 0.00 | 55 | 1017.9 |
| 20260509111002 | 56 | 278 | 0.0 | 2.0 | 0.00 | 0.00 | 0.00 | 54 | 1018.0 |
| 20260509110503 | 56 | 274 | 1.0 | 2.0 | 0.00 | 0.00 | 0.00 | 55 | 1018.1 |
| 20260509110003 | 56 | 268 | 1.0 | 2.0 | 0.00 | 0.00 | 0.00 | 54 | 1018.0 |
| 20260509105003 | 56 | 262 | 1.0 | 2.0 | 0.00 | 0.00 | 0.00 | 55 | 1018.1 |
| 20260509104502 | 54 | 249 | 1.0 | 3.0 | 0.00 | 0.00 | 0.00 | 55 | 1018.2 |
| 20260509103503 | 55 | 253 | 0.0 | 2.0 | 0.00 | 0.00 | 0.00 | 54 | 1018.2 |
| 20260509103003 | 56 | 0 | 0.0 | 0.0 | 0.00 | 0.00 | 0.00 | 54 | 1018.1 |
| 20260509102503 | 58 | 0 | 0.0 | 0.0 | 0.00 | 0.00 | 0.00 | 51 | 1018.1 |
| 20260509101502 | 59 | 233 | 2.0 | 4.0 | 0.00 | 0.00 | 0.00 | 50 | 1018.1 |
| 20260509101003 | 59 | 234 | 1.0 | 7.0 | 0.00 | 0.00 | 0.00 | 49 | 1018.2 |
| 20260509100502 | 60 | 228 | 1.0 | 3.0 | 0.00 | 0.00 | 0.00 | 48 | 1018.2 |
| 20260509095503 | 60 | 97 | 0.0 | 3.0 | 0.00 | 0.00 | 0.00 | 46 | 1018.2 |
| 20260509095003 | 59 | 82 | 0.0 | 2.0 | 0.00 | 0.00 | 0.00 | 47 | 1018.2 |
| 20260509094003 | 59 | 0 | 0.0 | 0.0 | 0.00 | 0.00 | 0.00 | 46 | 1018.4 |
| 20260509093503 | 59 | 0 | 0.0 | 0.0 | 0.00 | 0.00 | 0.00 | 45 | 1018.3 |
| 20260509093003 | 59 | 0 | 0.0 | 0.0 | 0.00 | 0.00 | 0.00 | 45 | 1018.3 |
| 20260509092503 | 60 | 0 | 0.0 | 0.0 | 0.00 | 0.00 | 0.00 | 43 | 1018.3 |
| 20260509092002 | 60 | 57 | 0.0 | 1.0 | 0.00 | 0.00 | 0.00 | 43 | 1018.3 |
| 20260509091503 | 60 | 0 | 0.0 | 0.0 | 0.00 | 0.00 | 0.00 | 43 | 1018.4 |
| 20260509091002 | 60 | 66 | 0.0 | 2.0 | 0.00 | 0.00 | 0.00 | 42 | 1018.4 |
| 20260509090003 | 61 | 78 | 0.0 | 2.0 | 0.00 | 0.00 | 0.00 | 42 | 1018.4 |
| 20260509085503 | 60 | 0 | 0.0 | 0.0 | 0.00 | 0.00 | 0.00 | 41 | 1018.4 |
| 20260509085003 | 60 | 0 | 0.0 | 0.0 | 0.00 | 0.00 | 0.00 | 41 | 1018.4 |
| 20260509084503 | 60 | 0 | 0.0 | 0.0 | 0.00 | 0.00 | 0.00 | 42 | 1018.4 |
| 20260509084002 | 60 | 4 | 0.0 | 2.0 | 0.00 | 0.00 | 0.00 | 41 | 1018.4 |
| 20260509083503 | 60 | 7 | 0.0 | 3.0 | 0.00 | 0.00 | 0.00 | 41 | 1018.4 |
| 20260509083002 | 60 | 20 | 0.0 | 1.0 | 0.00 | 0.00 | 0.00 | 43 | 1018.4 |
| 20260509082504 | 60 | 15 | 1.0 | 2.0 | 0.00 | 0.00 | 0.00 | 44 | 1018.5 |
| 20260509082003 | 60 | 5 | 1.0 | 2.0 | 0.00 | 0.00 | 0.00 | 44 | 1018.5 |
| 20260509081003 | 61 | 321 | 0.0 | 1.0 | 0.00 | 0.00 | 0.00 | 40 | 1018.5 |
| 20260509080004 | 60 | 0 | 0.0 | 0.0 | 0.00 | 0.00 | 0.00 | 43 | 1018.7 |
| 20260509075503 | 60 | 0 | 1.0 | 0.0 | 0.00 | 0.00 | 0.00 | 42 | 1018.7 |
| 20260509074502 | 61 | 226 | 2.0 | 4.0 | 0.00 | 0.00 | 0.00 | 42 | 1018.8 |
| 20260509074003 | 61 | 227 | 3.0 | 4.0 | 0.00 | 0.00 | 0.00 | 42 | 1018.8 |
| 20260509073503 | 62 | 291 | 2.0 | 4.0 | 0.00 | 0.00 | 0.00 | 41 | 1018.8 |
| 20260509073003 | 62 | 247 | 2.0 | 5.0 | 0.00 | 0.00 | 0.00 | 40 | 1018.9 |
| 20260509071504 | 61 | 244 | 2.0 | 3.0 | 0.00 | 0.00 | 0.00 | 43 | 1018.9 |
| 20260509071003 | 61 | 244 | 2.0 | 3.0 | 0.00 | 0.00 | 0.00 | 44 | 1018.9 |
| 20260509070503 | 61 | 256 | 2.0 | 3.0 | 0.00 | 0.00 | 0.00 | 44 | 1018.9 |
| 20260509070004 | 60 | 249 | 1.0 | 3.0 | 0.00 | 0.00 | 0.00 | 42 | 1018.9 |
| 20260509065003 | 61 | 0 | 1.0 | 0.0 | 0.00 | 0.00 | 0.00 | 46 | 1019.1 |
| 20260509064503 | 61 | 0 | 0.0 | 0.0 | 0.00 | 0.00 | 0.00 | 44 | 1019.0 |
| 20260509064003 | 61 | 223 | 1.0 | 3.0 | 0.00 | 0.00 | 0.00 | 44 | 1018.9 |
| 20260509063503 | 61 | 262 | 2.0 | 2.0 | 0.00 | 0.00 | 0.00 | 43 | 1019.0 |
| 20260509063003 | 61 | 262 | 3.0 | 2.0 | 0.00 | 0.00 | 0.00 | 42 | 1018.9 |
| 20260509062503 | 61 | 263 | 3.0 | 4.0 | 0.00 | 0.00 | 0.00 | 44 | 1018.9 |
| 20260509062003 | 62 | 264 | 3.0 | 6.0 | 0.00 | 0.00 | 0.00 | 45 | 1019.0 |
| 20260509061503 | 62 | 266 | 3.0 | 4.0 | 0.00 | 0.00 | 0.00 | 47 | 1019.1 |
| 20260509061003 | 62 | 265 | 2.0 | 4.0 | 0.00 | 0.00 | 0.00 | 47 | 1019.2 |
| 20260509060503 | 62 | 252 | 2.0 | 6.0 | 0.00 | 0.00 | 0.00 | 47 | 1019.1 |
| 20260509060005 | 62 | 249 | 3.0 | 3.0 | 0.00 | 0.00 | 0.00 | 47 | 1019.0 |
| 20260509055503 | 63 | 264 | 3.0 | 3.0 | 0.00 | 0.00 | 0.00 | 47 | 1019.1 |
| 20260509055004 | 63 | 265 | 2.0 | 6.0 | 0.00 | 0.00 | 0.00 | 47 | 1019.0 |
| 20260509054503 | 64 | 273 | 1.0 | 4.0 | 0.00 | 0.00 | 0.00 | 46 | 1019.1 |
| 20260509053503 | 64 | 284 | 0.0 | 1.0 | 0.00 | 0.00 | 0.00 | 45 | 1019.2 |
| 20260509053003 | 64 | 0 | 2.0 | 0.0 | 0.00 | 0.00 | 0.00 | 43 | 1019.2 |
| 20260509052003 | 64 | 280 | 4.0 | 4.0 | 0.00 | 0.00 | 0.00 | 42 | 1019.1 |
| 20260509051503 | 64 | 277 | 4.0 | 6.0 | 0.00 | 0.00 | 0.00 | 43 | 1019.2 |
| 20260509050003 | 64 | 277 | 6.0 | 6.0 | 0.00 | 0.00 | 0.00 | 44 | 1019.1 |
| 20260509045503 | 64 | 280 | 7.0 | 7.0 | 0.00 | 0.00 | 0.00 | 44 | 1019.1 |
| 20260509045003 | 64 | 270 | 6.0 | 10.0 | 0.00 | 0.00 | 0.00 | 44 | 1019.0 |
| 20260509043503 | 64 | 279 | 6.0 | 8.0 | 0.00 | 0.00 | 0.00 | 48 | 1019.0 |
| 20260509043003 | 65 | 276 | 7.0 | 7.0 | 0.00 | 0.00 | 0.00 | 49 | 1019.0 |
| 20260509042503 | 65 | 267 | 6.0 | 11.0 | 0.00 | 0.00 | 0.00 | 49 | 1018.9 |
| 20260509042003 | 65 | 274 | 5.0 | 9.0 | 0.00 | 0.00 | 0.00 | 49 | 1018.9 |